N2OCK Weather Reports


Display with metric or nautical units.
time (UTC)temp
F
wind
direction
speed
MPH
gust
MPH
rain 1hr
in
rain 24hr
in
rain mn
in
humidity
%
barometer
mb
20260504185455 67 197 6.0 10.0 0.00 0.00 0.00 47 1011.2
20260504184951 68 174 2.0 9.0 0.00 0.00 0.00 47 1011.2
20260504184447 67 231 2.0 9.0 0.00 0.00 0.00 46 1011.3
20260504183943 68 331 7.0 9.0 0.00 0.00 0.00 42 1011.4
20260504183440 68 231 6.0 10.0 0.00 0.00 0.00 45 1011.3
20260504182938 68 222 2.0 7.0 0.00 0.00 0.00 47 1011.5
20260504182434 68 179 6.0 9.0 0.00 0.00 0.00 46 1011.3
20260504181932 67 189 3.0 8.0 0.00 0.00 0.00 49 1011.4
20260504181424 68 205 4.0 8.0 0.00 0.00 0.00 46 1011.7
20260504180922 67 193 4.0 7.0 0.00 0.00 0.00 48 1011.9
20260504180421 67 215 2.0 8.0 0.00 0.00 0.00 49 1011.6
20260504175919 67 213 4.0 7.0 0.00 0.00 0.00 49 1011.7
20260504175415 67 217 3.0 13.0 0.00 0.00 0.00 49 1011.8
20260504174913 67 217 2.0 9.0 0.00 0.00 0.00 50 1011.8
20260504174410 67 312 2.0 11.0 0.00 0.00 0.00 49 1011.5
20260504173908 67 183 1.0 4.0 0.00 0.00 0.00 49 1011.7
20260504173403 66 195 2.0 6.0 0.00 0.00 0.00 50 1011.7
20260504172901 66 164 5.0 9.0 0.00 0.00 0.00 47 1011.8
20260504172357 66 169 5.0 8.0 0.00 0.00 0.00 47 1011.8
20260504171853 65 251 5.0 10.0 0.00 0.00 0.00 47 1012.0
20260504171351 65 237 8.0 10.0 0.00 0.00 0.00 46 1012.0
20260504170848 65 326 6.0 11.0 0.00 0.00 0.00 45 1011.9
20260504170344 65 202 4.0 11.0 0.00 0.00 0.00 45 1012.2
20260504160303 66 220 4.0 8.0 0.00 0.00 0.00 41 1012.8
20260504150728 65 202 7.0 11.0 0.00 0.00 0.00 39 1013.4
20260504150225 65 231 6.0 10.0 0.00 0.00 0.00 41 1013.3
20260504141154 63 200 5.0 7.0 0.00 0.00 0.00 46 1013.4
20260504140651 63 264 3.0 10.0 0.00 0.00 0.00 44 1013.6
20260504140146 63 219 2.0 9.0 0.00 0.00 0.00 45 1013.7
20260504130614 60 203 1.0 4.0 0.00 0.00 0.00 50 1014.1
20260504130111 59 197 2.0 6.0 0.00 0.00 0.00 49 1014.0
20260504110502 52 198 1.0 3.0 0.00 0.00 0.00 61 1014.2
20260504100419 47 220 1.0 1.0 0.00 0.00 0.00 65 1014.0
20260504081806 50 218 0.0 3.0 0.00 0.00 0.00 56 1013.4
20260504081303 50 213 0.0 0.0 0.00 0.00 0.00 57 1013.4
20260504080759 50 215 0.0 1.0 0.00 0.00 0.00 57 1013.3
20260504080256 49 215 0.0 4.0 0.00 0.00 0.00 56 1013.2
20260504070223 50 224 0.0 2.0 0.00 0.00 0.00 58 1012.9
20260504060144 48 224 0.0 3.0 0.00 0.00 0.00 64 1013.1
20260504050612 46 219 0.0 1.0 0.00 0.00 0.00 66 1012.6
20260504050109 46 219 0.0 0.0 0.00 0.00 0.00 66 1012.7
20260504045606 46 219 0.0 1.0 0.00 0.00 0.00 64 1012.8
20260504045101 47 219 0.0 0.0 0.00 0.00 0.00 63 1012.9
20260504044559 47 219 1.0 2.0 0.00 0.00 0.00 62 1012.8
20260504044055 47 220 0.0 2.0 0.00 0.00 0.00 62 1012.5
20260504043553 45 207 0.0 2.0 0.00 0.00 0.00 63 1012.7
20260504043050 44 207 0.0 0.0 0.00 0.00 0.00 67 1012.6
20260504042547 44 207 0.0 0.0 0.00 0.00 0.00 66 1012.8
20260504042044 44 207 0.0 0.0 0.00 0.00 0.00 65 1012.6
20260504041539 45 207 0.0 0.0 0.00 0.00 0.00 63 1012.6
20260504041036 45 207 0.0 0.0 0.00 0.00 0.00 62 1012.5
20260504040533 45 207 0.0 0.0 0.00 0.00 0.00 62 1012.5
20260504040030 46 207 0.0 0.0 0.00 0.00 0.00 61 1012.7
20260504035527 46 207 0.0 0.0 0.00 0.00 0.00 59 1012.6
20260504035023 47 207 0.0 0.0 0.00 0.00 0.00 57 1012.7
20260504034521 46 221 0.0 0.0 0.00 0.00 0.00 57 1012.6
20260504034018 45 221 0.0 0.0 0.00 0.00 0.00 59 1012.5
20260504033516 44 221 0.0 0.0 0.00 0.00 0.00 64 1012.5
20260504033013 43 221 0.0 0.0 0.00 0.00 0.00 66 1012.6
20260504032509 44 221 0.0 0.0 0.00 0.00 0.00 65 1012.5
20260504032006 44 221 0.0 0.0 0.00 0.00 0.00 65 1012.4
20260504031503 44 221 0.0 0.0 0.00 0.00 0.00 64 1012.5
20260504031000 44 221 0.0 0.0 0.00 0.00 0.00 63 1012.4
20260504030457 44 221 0.0 0.0 0.00 0.00 0.00 62 1012.4
20260504025953 45 221 0.0 0.0 0.00 0.00 0.00 59 1012.6
20260504025450 45 221 0.0 0.0 0.00 0.00 0.00 60 1012.4
20260504024947 46 221 0.0 0.0 0.00 0.00 0.00 59 1012.4
20260504024444 45 221 0.0 0.0 0.00 0.00 0.00 58 1012.4
20260504023941 43 221 0.0 0.0 0.00 0.00 0.00 62 1012.6
20260504023437 43 221 0.0 0.0 0.00 0.00 0.00 67 1012.5
20260504022933 43 221 0.0 0.0 0.00 0.00 0.00 65 1012.5
20260504022429 43 221 0.0 0.0 0.00 0.00 0.00 67 1012.6
20260504021926 43 221 0.0 0.0 0.00 0.00 0.00 66 1012.6
20260504021424 44 221 0.0 0.0 0.00 0.00 0.00 65 1012.4
20260504020921 44 221 0.0 0.0 0.00 0.00 0.00 64 1012.4
20260504020417 44 221 0.0 0.0 0.00 0.00 0.00 63 1012.5
20260504015914 44 221 0.0 0.0 0.00 0.00 0.00 63 1012.5
20260504015410 45 221 0.0 0.0 0.00 0.00 0.00 60 1012.4
20260504014906 46 221 0.0 0.0 0.00 0.00 0.00 58 1012.1
20260504014401 46 221 0.0 0.0 0.00 0.00 0.00 57 1012.2
20260504013859 46 221 0.0 0.0 0.00 0.00 0.00 57 1012.3
20260504013357 46 221 0.0 0.0 0.00 0.00 0.00 57 1012.2
20260504012848 46 221 0.0 0.0 0.00 0.00 0.00 57 1012.1
20260504012345 47 221 0.0 0.0 0.00 0.00 0.00 58 1012.1
20260504011843 47 221 0.0 0.0 0.00 0.00 0.00 56 1011.9
20260504011339 47 221 0.0 0.0 0.00 0.00 0.00 55 1011.9
20260504010835 47 224 0.0 0.0 0.00 0.00 0.00 53 1012.0
20260504010331 48 224 0.0 0.0 0.00 0.00 0.00 49 1012.0
20260504005828 48 224 0.0 0.0 0.00 0.00 0.00 49 1011.7
20260504005325 49 224 0.0 0.0 0.00 0.00 0.00 48 1011.7
20260504004822 49 224 0.0 0.0 0.00 0.00 0.00 46 1011.8
20260504004320 50 224 0.0 0.0 0.00 0.00 0.00 45 1011.7
20260504003816 50 224 0.0 0.0 0.00 0.00 0.00 45 1011.6
20260504003313 51 224 0.0 0.0 0.00 0.00 0.00 44 1011.6
20260504002809 51 224 0.0 0.0 0.00 0.00 0.00 43 1011.4
20260504002307 51 224 0.0 0.0 0.00 0.00 0.00 42 1011.2
20260504001804 52 224 0.0 0.0 0.00 0.00 0.00 41 1011.2
20260504001301 52 224 0.0 0.0 0.00 0.00 0.00 42 1011.3
20260504000758 52 225 0.0 0.0 0.00 0.00 0.00 41 1011.1
20260504000255 53 225 0.0 0.0 0.00 0.00 0.00 39 1010.8
20260503235753 53 225 0.0 0.0 0.00 0.00 0.00 38 1011.1
20260503235250 54 225 0.0 0.0 0.00 0.00 0.00 37 1010.9
20260503234747 55 241 0.0 2.0 0.00 0.00 0.00 35 1011.0
20260503234245 55 233 0.0 1.0 0.00 0.00 0.00 35 1011.0
20260503233742 56 254 2.0 2.0 0.00 0.00 0.00 34 1010.9
20260503233238 56 241 0.0 2.0 0.00 0.00 0.00 34 1010.7
20260503232735 57 290 3.0 9.0 0.00 0.00 0.00 32 1010.7
20260503232232 57 222 1.0 3.0 0.00 0.00 0.00 33 1010.6
20260503231730 58 253 5.0 7.0 0.00 0.00 0.00 31 1010.5
20260503231227 58 311 3.0 6.0 0.00 0.00 0.00 31 1010.4
20260503230722 58 204 1.0 3.0 0.00 0.00 0.00 32 1010.4
20260503230220 58 266 3.0 4.0 0.00 0.00 0.00 31 1010.3
20260503225712 59 322 4.0 6.0 0.00 0.00 0.00 30 1010.2
20260503225212 59 272 1.0 3.0 0.00 0.00 0.00 30 1010.4
20260503224709 59 44 2.0 3.0 0.00 0.00 0.00 30 1010.4
20260503224207 59 227 2.0 10.0 0.00 0.00 0.00 30 1010.4
20260503223705 59 275 10.0 14.0 0.00 0.00 0.00 29 1010.3
20260503223202 59 307 4.0 9.0 0.00 0.00 0.00 29 1010.2
20260503222658 59 352 6.0 9.0 0.00 0.00 0.00 29 1010.4
20260503222156 59 283 3.0 9.0 0.00 0.00 0.00 29 1010.3
20260503221654 59 187 1.0 7.0 0.00 0.00 0.00 31 1010.2
20260503221151 59 287 4.0 9.0 0.00 0.00 0.00 30 1010.2
20260503220648 59 291 2.0 6.0 0.00 0.00 0.00 30 1010.2
20260503220144 59 282 6.0 9.0 0.00 0.00 0.00 30 1010.3
20260503215642 59 301 6.0 8.0 0.00 0.00 0.00 30 1010.2
20260503215138 60 278 6.0 8.0 0.00 0.00 0.00 29 1010.2
20260503214637 59 319 1.0 4.0 0.00 0.00 0.00 31 1010.3
20260503214132 59 322 5.0 8.0 0.00 0.00 0.00 31 1010.1
20260503213632 59 307 9.0 11.0 0.00 0.00 0.00 31 1010.0
20260503213127 59 148 5.0 9.0 0.00 0.00 0.00 31 1010.2
20260503212625 59 319 3.0 13.0 0.00 0.00 0.00 31 1010.0
20260503212122 59 354 8.0 15.0 0.00 0.00 0.00 31 1010.0
20260503211620 59 3 5.0 9.0 0.00 0.00 0.00 32 1010.1
20260503211115 59 279 2.0 8.0 0.00 0.00 0.00 33 1010.2
20260503210612 59 251 2.0 11.0 0.00 0.00 0.00 32 1010.0
20260503210109 59 311 2.0 7.0 0.00 0.00 0.00 32 1010.0
20260503205604 59 257 6.0 11.0 0.00 0.00 0.00 32 1010.1
20260503205101 58 261 2.0 11.0 0.00 0.00 0.00 34 1010.0
20260503204558 59 255 5.0 14.0 0.00 0.00 0.00 33 1010.0
20260503204055 58 301 5.0 15.0 0.00 0.00 0.00 34 1009.9
20260503203552 58 285 3.0 11.0 0.00 0.00 0.00 33 1010.0
20260503203049 58 266 3.0 11.0 0.00 0.00 0.00 35 1009.8
20260503202547 58 327 4.0 13.0 0.00 0.00 0.00 34 1010.1
20260503202045 58 335 3.0 8.0 0.00 0.00 0.00 36 1010.3
20260503201543 57 277 4.0 11.0 0.00 0.00 0.00 36 1010.0
20260503201040 58 300 4.0 9.0 0.00 0.00 0.00 36 1010.1
20260503200536 58 285 3.0 7.0 0.00 0.00 0.00 35 1010.2
20260503200033 59 248 7.0 10.0 0.00 0.00 0.00 33 1010.2
20260503195530 58 266 2.0 7.0 0.00 0.00 0.00 35 1010.1
20260503195027 58 269 6.0 10.0 0.00 0.00 0.00 35 1010.2
20260503194524 58 354 5.0 11.0 0.00 0.00 0.00 36 1010.3
20260503194023 57 347 3.0 9.0 0.00 0.00 0.00 37 1010.2
20260503193521 57 272 4.0 8.0 0.00 0.00 0.00 37 1010.4
20260503193016 57 265 4.0 10.0 0.00 0.00 0.00 37 1010.5
20260503192512 57 331 7.0 11.0 0.00 0.00 0.00 38 1010.5
20260503192008 57 275 5.0 17.0 0.00 0.00 0.00 37 1010.6
20260503191505 57 308 9.0 13.0 0.00 0.00 0.00 36 1010.4
20260503191002 56 287 5.0 15.0 0.00 0.00 0.00 37 1010.4
20260503190459 56 219 6.0 10.0 0.00 0.00 0.00 38 1010.5
20260503185956 57 309 8.0 14.0 0.00 0.00 0.00 37 1010.6